CW5749 Weather Reports


time (UTC)temp
C
wind
direction
speed
KPH
gust
KPH
rain 1hr
cm
rain 24hr
cm
rain mn
cm
humidity
%
barometer
mb
20260906155530 23 60 3.2 6.4 0.00 0.00 0.00 83 1019.4
20260906155252 23 125 3.2 4.8 0.00 0.00 0.00 84 1019.3
20260906154531 23 142 3.2 8.0 0.00 0.00 0.00 85 1019.3
20260906154030 23 50 3.2 8.0 0.00 0.00 0.00 85 1019.3
20260906153531 22 83 3.2 9.7 0.00 0.00 0.00 86 1019.3
20260906153030 22 112 3.2 9.7 0.00 0.00 0.00 86 1019.1
20260906152801 22 110 3.2 8.0 0.00 0.00 0.00 87 1019.1
20260906152030 22 92 1.6 8.0 0.00 0.00 0.00 87 1019.1
20260906151531 22 88 3.2 8.0 0.00 0.00 0.00 88 1019.1
20260906151031 22 109 3.2 8.0 0.00 0.00 0.00 88 1019.1
20260906150531 22 103 1.6 8.0 0.00 0.00 0.00 88 1019.1
20260906145530 21 114 1.6 6.4 0.00 0.00 0.00 89 1019.1
20260906145031 21 88 1.6 6.4 0.00 0.00 0.00 89 1019.1
20260906144530 21 91 3.2 8.0 0.00 0.00 0.00 89 1019.1
20260906144249 21 106 1.6 8.0 0.00 0.00 0.00 89 1019.0
20260906143530 21 171 1.6 11.3 0.00 0.00 0.00 90 1018.9
20260906143030 21 88 3.2 11.3 0.00 0.00 0.00 90 1018.9
20260906142532 21 71 1.6 6.4 0.00 0.00 0.00 90 1018.8
20260906142029 21 302 3.2 9.7 0.00 0.00 0.00 90 1018.8
20260906141527 21 94 3.2 9.7 0.00 0.00 0.00 90 1018.8
20260906141027 21 88 3.2 8.0 0.00 0.00 0.00 90 1018.7
20260906140527 21 57 3.2 8.0 0.00 0.00 0.00 90 1018.6
20260906135530 21 128 3.2 9.7 0.00 0.00 0.00 90 1018.7
20260906135030 21 100 3.2 9.7 0.00 0.00 0.00 90 1018.6
20260906134523 21 54 3.2 11.3 0.00 0.00 0.00 90 1018.7
20260906134024 21 169 4.8 16.1 0.00 0.00 0.00 91 1018.7
20260906133748 21 45 6.4 16.1 0.00 0.00 0.00 90 1018.6
20260906133021 20 22 4.8 16.1 0.00 0.00 0.00 91 1018.6
20260906132521 20 75 4.8 16.1 0.00 0.00 0.00 91 1018.6
20260906132024 20 107 3.2 9.7 0.00 0.00 0.00 91 1018.5
20260906131521 20 56 3.2 11.3 0.00 0.00 0.00 91 1018.5
20260906131022 20 72 4.8 11.3 0.00 0.00 0.00 91 1018.4
20260906130522 20 58 4.8 11.3 0.00 0.00 0.00 92 1018.3
20260906130021 20 58 4.8 14.5 0.00 0.00 0.00 92 1018.2
20260906125517 20 63 4.8 14.5 0.00 0.00 0.00 92 1018.1
20260906125017 20 72 3.2 9.7 0.00 0.00 0.00 92 1018.1
20260906124518 20 50 3.2 8.0 0.00 0.00 0.00 92 1018.0
20260906124017 20 85 3.2 8.0 0.00 0.00 0.00 92 1017.9
20260906123521 20 53 3.2 8.0 0.00 0.00 0.00 93 1018.0
20260906123017 20 67 3.2 8.0 0.00 0.00 0.00 93 1018.0
20260906122017 20 69 1.6 3.2 0.00 0.00 0.00 93 1017.9
20260906121518 20 46 1.6 4.8 0.00 0.00 0.00 93 1017.9
20260906121016 20 93 1.6 6.4 0.00 0.00 0.00 93 1017.9
20260906120515 20 49 3.2 8.0 0.00 0.00 0.00 93 1017.9
20260906120015 20 43 3.2 9.7 0.00 0.00 0.00 93 1017.9
20260906115515 20 46 3.2 9.7 0.00 0.00 0.00 93 1017.8
20260906115016 20 86 3.2 6.4 0.00 0.00 0.00 93 1017.8
20260906114515 20 55 3.2 6.4 0.00 0.00 0.00 93 1017.8
20260906114015 20 49 3.2 6.4 0.00 0.00 0.00 92 1017.8
20260906113738 20 75 3.2 8.0 0.00 0.00 0.00 92 1017.8
20260906113016 20 56 1.6 8.0 0.00 0.00 0.00 92 1017.9
20260906112510 20 356 0.0 3.2 0.00 0.00 0.00 92 1017.9
20260906112011 20 20 1.6 4.8 0.00 0.00 0.00 92 1017.8
20260906111512 20 38 1.6 6.4 0.00 0.00 0.00 92 1017.6
20260906111011 20 54 1.6 6.4 0.00 0.00 0.00 92 1017.5
20260906110511 20 31 1.6 4.8 0.00 0.00 0.00 92 1017.4
20260906110011 20 65 1.6 4.8 0.00 0.00 0.00 92 1017.4
20260906105510 20 60 1.6 3.2 0.00 0.00 0.00 92 1017.3
20260906105233 20 54 1.6 4.8 0.00 0.00 0.00 92 1017.3
20260906104514 20 72 1.6 4.8 0.00 0.00 0.00 92 1017.3
20260906104232 20 72 3.2 4.8 0.00 0.00 0.00 92 1017.3
20260906103507 20 65 3.2 8.0 0.00 0.00 0.00 92 1017.2
20260906103010 20 62 1.6 8.0 0.00 0.00 0.00 92 1017.1
20260906102507 20 62 3.2 6.4 0.00 0.00 0.00 92 1017.2
20260906102007 20 64 1.6 6.4 0.00 0.00 0.00 92 1017.1
20260906101507 20 81 1.6 6.4 0.00 0.00 0.00 92 1017.0
20260906101008 20 66 1.6 6.4 0.00 0.00 0.00 92 1017.0
20260906100510 20 57 1.6 4.8 0.00 0.00 0.00 92 1017.0
20260906100007 20 100 1.6 4.8 0.00 0.00 0.00 92 1016.9
20260906095507 20 77 1.6 6.4 0.00 0.00 0.00 92 1016.7
20260906095007 20 69 3.2 9.7 0.00 0.00 0.00 92 1016.6
20260906094507 21 57 1.6 9.7 0.00 0.00 0.00 92 1016.6
20260906094230 21 64 1.6 4.8 0.00 0.00 0.00 92 1016.4
20260906093507 21 72 1.6 6.4 0.00 0.00 0.00 92 1016.4
20260906093007 21 57 1.6 6.4 0.00 0.00 0.00 92 1016.3
20260906092506 21 114 3.2 9.7 0.00 0.00 0.00 92 1016.2
20260906092006 21 114 3.2 9.7 0.00 0.00 0.00 92 1016.2
20260906091505 21 107 3.2 9.7 0.00 0.00 0.00 92 1016.2
20260906091012 21 142 3.2 8.0 0.00 0.00 0.00 91 1016.2
20260906090510 21 55 3.2 9.7 0.00 0.00 0.00 91 1016.3
20260906090010 21 87 3.2 9.7 0.00 0.00 0.00 91 1016.3
20260906085508 21 56 4.8 9.7 0.00 0.00 0.00 91 1016.3
20260906085229 21 57 4.8 9.7 0.00 0.00 0.00 91 1016.4
20260906083953 21 59 3.2 9.7 0.00 0.00 0.00 91 1016.4
20260906083712 21 40 3.2 11.3 0.00 0.00 0.00 91 1016.4
20260906082941 21 56 3.2 11.3 0.00 0.00 0.00 91 1016.4
20260906082438 21 81 3.2 8.0 0.00 0.00 0.00 91 1016.3
20260906081939 22 57 3.2 9.7 0.00 0.00 0.00 90 1016.3
20260906081437 22 55 4.8 9.7 0.00 0.00 0.00 90 1016.4
20260906080937 22 76 3.2 9.7 0.00 0.00 0.00 90 1016.3
20260906080437 22 53 3.2 8.0 0.00 0.00 0.00 90 1016.2
20260906075937 22 41 4.8 11.3 0.00 0.00 0.00 90 1016.3
20260906075437 22 60 4.8 11.3 0.00 0.00 0.00 90 1016.4
20260906074937 22 101 4.8 9.7 0.00 0.00 0.00 90 1016.5
20260906074701 22 72 3.2 9.7 0.00 0.00 0.00 90 1016.5
20260906073933 22 92 3.2 12.9 0.00 0.00 0.00 90 1016.5
20260906073436 22 21 3.2 12.9 0.00 0.00 0.00 90 1016.4
20260906072933 22 119 3.2 9.7 0.00 0.00 0.00 89 1016.4
20260906072433 22 75 3.2 9.7 0.00 0.00 0.00 89 1016.5
20260906071931 22 69 4.8 11.3 0.00 0.00 0.00 89 1016.5
20260906071430 22 89 3.2 11.3 0.00 0.00 0.00 89 1016.5
20260906070930 22 31 3.2 6.4 0.00 0.00 0.00 89 1016.6
20260906070431 22 91 4.8 9.7 0.00 0.00 0.00 89 1016.6
20260906065930 22 60 3.2 9.7 0.00 0.00 0.00 89 1016.7
20260906065434 22 57 3.2 9.7 0.00 0.00 0.00 89 1016.7
20260906064931 22 65 3.2 9.7 0.00 0.00 0.00 88 1016.8
20260906064434 22 48 3.2 9.7 0.00 0.00 0.00 88 1016.7
20260906063930 22 70 1.6 8.0 0.00 0.00 0.00 88 1016.7
20260906063432 22 74 1.6 6.4 0.00 0.00 0.00 88 1016.6
20260906062932 22 41 3.2 8.0 0.00 0.00 0.00 88 1016.7
20260906062430 22 45 3.2 8.0 0.00 0.00 0.00 88 1016.7
20260906061651 22 15 3.2 6.4 0.00 0.00 0.00 88 1016.8
20260906060931 23 60 3.2 8.0 0.00 0.00 0.00 88 1016.8
20260906060430 23 29 3.2 9.7 0.00 0.00 0.00 88 1016.8
20260906055931 23 39 3.2 9.7 0.00 0.00 0.00 88 1016.7
20260906055656 23 48 3.2 9.7 0.00 0.00 0.00 87 1016.7
20260906054932 23 48 3.2 6.4 0.00 0.00 0.00 87 1016.9
20260906054154 23 106 3.2 8.0 0.00 0.00 0.00 87 1016.7
20260906053430 23 25 3.2 8.0 0.00 0.00 0.00 87 1016.6
20260906052931 23 50 3.2 8.0 0.00 0.00 0.00 87 1016.5
20260906052653 23 50 3.2 8.0 0.00 0.00 0.00 87 1016.5
20260906051930 23 33 3.2 8.0 0.00 0.00 0.00 86 1016.6
20260906051431 23 33 3.2 9.7 0.00 0.00 0.00 86 1016.5
20260906050934 23 63 3.2 9.7 0.00 0.00 0.00 86 1016.6
20260906050431 23 67 1.6 6.4 0.00 0.00 0.00 86 1016.6
20260906045931 23 29 1.6 6.4 0.00 0.00 0.00 86 1016.5
20260906045657 23 39 1.6 6.4 0.00 0.00 0.00 86 1016.3
20260906044931 23 85 3.2 6.4 0.00 0.00 0.00 86 1016.2
20260906044430 23 55 3.2 8.0 0.00 0.00 0.00 86 1016.2
20260906043932 23 35 3.2 8.0 0.00 0.00 0.00 86 1016.2
20260906043432 23 73 3.2 6.4 0.00 0.00 0.00 86 1016.2
20260906042932 23 73 3.2 8.0 0.00 0.00 0.00 87 1016.2
20260906042432 23 20 1.6 8.0 0.00 0.00 0.00 87 1016.2
20260906041417 23 39 1.6 6.4 0.00 0.00 0.00 86 1016.2
20260906040642 23 49 3.2 6.4 0.00 0.00 0.00 85 1016.2
20260906035410 23 4 3.2 6.4 0.00 0.00 0.00 85 1016.2
20260906035131 23 27 3.2 6.4 0.00 0.00 0.00 85 1016.2
20260906034408 23 62 3.2 4.8 0.00 0.00 0.00 85 1016.0
20260906033905 23 19 1.6 4.8 0.00 0.00 0.00 85 1015.9
20260906033627 23 358 1.6 8.0 0.00 0.00 0.00 85 1015.9
20260906032905 23 64 3.2 8.0 0.00 0.00 0.00 85 1016.0
20260906032403 23 82 1.6 4.8 0.00 0.00 0.00 85 1015.9
20260906031903 24 38 1.6 8.0 0.00 0.00 0.00 85 1015.8
20260906031630 24 74 1.6 8.0 0.00 0.00 0.00 85 1015.7
20260906030902 24 356 1.6 4.8 0.00 0.00 0.00 85 1015.7
20260906030403 24 64 1.6 4.8 0.00 0.00 0.00 85 1015.7
20260906025903 24 63 1.6 6.4 0.00 0.00 0.00 85 1015.7
20260906025403 24 76 3.2 8.0 0.00 0.00 0.00 85 1015.7
20260906024903 24 47 4.8 9.7 0.00 0.00 0.00 85 1015.5
20260906024403 24 62 3.2 9.7 0.00 0.00 0.00 85 1015.6
20260906023903 24 62 3.2 8.0 0.00 0.00 0.00 85 1015.5
20260906023625 24 74 3.2 8.0 0.00 0.00 0.00 85 1015.5
20260906022854 24 89 3.2 6.4 0.00 0.00 0.00 84 1015.4
20260906022354 24 341 3.2 11.3 0.00 0.00 0.00 85 1015.4
20260906021853 24 53 1.6 11.3 0.00 0.00 0.00 85 1015.3
20260906021351 25 57 3.2 11.3 0.00 0.00 0.00 84 1015.2
20260906021119 25 55 3.2 12.9 0.00 0.00 0.00 84 1015.1
20260906020352 25 54 3.2 12.9 0.00 0.00 0.00 84 1015.0
20260906015850 25 15 3.2 11.3 0.00 0.00 0.00 84 1014.8
20260906014850 25 77 3.2 8.0 0.00 0.00 0.00 83 1014.7
20260906014350 25 30 3.2 8.0 0.00 0.00 0.00 83 1014.7
20260906013847 25 54 3.2 8.0 0.00 0.00 0.00 83 1014.5
20260906013348 25 342 3.2 8.0 0.00 0.00 0.00 83 1014.5
20260906013109 25 48 3.2 6.4 0.00 0.00 0.00 82 1014.5
20260906012348 25 38 3.2 8.0 0.00 0.00 0.00 82 1014.4
20260906011846 25 43 3.2 8.0 0.00 0.00 0.00 82 1014.4
20260906011347 25 351 1.6 6.4 0.00 0.00 0.00 82 1014.4
20260906010841 25 54 1.6 6.4 0.00 0.00 0.00 81 1014.4
20260906010341 26 74 3.2 6.4 0.00 0.00 0.00 81 1014.4
20260906005340 26 29 1.6 6.4 0.00 0.00 0.00 81 1014.2
20260906004839 26 77 1.6 8.0 0.00 0.00 0.00 81 1014.2
20260906004339 26 43 3.2 8.0 0.00 0.00 0.00 81 1014.2
20260906003838 26 55 1.6 9.7 0.00 0.00 0.00 80 1014.2
20260906003339 26 349 3.2 9.7 0.00 0.00 0.00 80 1014.2
20260906002838 26 96 3.2 8.0 0.00 0.00 0.00 80 1014.1
20260906002606 26 90 3.2 6.4 0.00 0.00 0.00 79 1014.2
20260906001836 26 60 3.2 11.3 0.00 0.00 0.00 79 1014.2
20260906001335 26 44 3.2 11.3 0.00 0.00 0.00 78 1014.2
20260906000833 27 32 3.2 11.3 0.00 0.00 0.00 78 1014.2
20260906000334 27 46 4.8 11.3 0.00 0.00 0.00 77 1014.1
20260905235836 27 103 4.8 16.1 0.00 0.00 0.00 78 1014.2
20260905235557 27 64 8.0 17.7 0.00 0.00 0.00 77 1014.1
20260905234832 27 49 8.0 17.7 0.00 0.00 0.00 78 1014.1
20260905234331 28 44 8.0 17.7 0.00 0.00 0.00 78 1014.1
20260905233830 28 305 6.4 17.7 0.00 0.00 0.00 78 1014.1
20260905233331 28 45 8.0 17.7 0.00 0.00 0.00 77 1014.0
20260905232835 28 34 8.0 17.7 0.00 0.00 0.00 76 1014.0
20260905232553 29 70 8.0 19.3 0.00 0.00 0.00 75 1014.0
20260905231821 29 351 8.0 19.3 0.00 0.00 0.00 75 1013.9
20260905231316 30 60 6.4 16.1 0.00 0.00 0.00 74 1013.8
20260905231043 30 57 6.4 12.9 0.00 0.00 0.00 74 1013.7
20260905230302 30 54 6.4 20.9 0.00 0.00 0.00 75 1013.7
20260905225801 30 12 8.0 20.9 0.00 0.00 0.00 73 1013.7
20260905225518 30 43 9.7 22.5 0.00 0.00 0.00 74 1013.6
20260905224745 30 92 9.7 22.5 0.00 0.00 0.00 73 1013.5
20260905224243 31 67 8.0 19.3 0.00 0.00 0.00 72 1013.5
20260905224006 31 54 8.0 19.3 0.00 0.00 0.00 71 1013.5
20260905223237 32 54 8.0 19.3 0.00 0.00 0.00 69 1013.3
20260905222736 32 50 6.4 17.7 0.00 0.00 0.00 67 1013.2
20260905222502 32 20 6.4 14.5 0.00 0.00 0.00 66 1013.2
20260905222009 32 5 6.4 14.5 0.00 0.00 0.00 67 1013.3
20260905221236 32 84 6.4 16.1 0.00 0.00 0.00 64 1013.3
20260905221000 32 66 8.0 16.1 0.00 0.00 0.00 65 1013.2
20260905220231 32 27 6.4 16.1 0.00 0.00 0.00 64 1013.3
20260905215731 32 294 4.8 14.5 0.00 0.00 0.00 65 1013.3
20260905215232 32 108 6.4 11.3 0.00 0.00 0.00 63 1013.3
20260905214952 32 43 4.8 11.3 0.00 0.00 0.00 63 1013.5
20260905214232 32 343 4.8 11.3 0.00 0.00 0.00 65 1013.5
20260905213731 32 5 6.4 17.7 0.00 0.00 0.00 65 1013.4
20260905213230 33 353 4.8 17.7 0.00 0.00 0.00 64 1013.4
20260905212731 33 259 4.8 9.7 0.00 0.00 0.00 62 1013.4
20260905212231 33 17 6.4 16.1 0.00 0.00 0.00 60 1013.4
20260905211731 32 9 6.4 16.1 0.00 0.00 0.00 61 1013.4
20260905211230 33 356 4.8 14.5 0.00 0.00 0.00 63 1013.4
20260905210731 33 83 4.8 9.7 0.00 0.00 0.00 63 1013.4
20260905210230 33 320 4.8 9.7 0.00 0.00 0.00 61 1013.5
20260905205230 33 241 4.8 12.9 0.00 0.00 0.00 66 1013.5
20260905204729 32 36 6.4 12.9 0.00 0.00 0.00 65 1013.5
20260905204230 32 82 6.4 16.1 0.00 0.00 0.00 65 1013.6
20260905203957 32 332 4.8 16.1 0.00 0.00 0.00 65 1013.6
20260905202728 32 54 4.8 12.9 0.00 0.00 0.00 67 1013.6
20260905202225 32 69 4.8 12.9 0.00 0.00 0.00 67 1013.7
20260905201727 32 56 4.8 11.3 0.00 0.00 0.00 66 1013.6
20260905201225 33 17 4.8 12.9 0.00 0.00 0.00 66 1013.7
20260905200725 32 43 4.8 14.5 0.00 0.00 0.00 66 1013.7
20260905195725 32 50 6.4 11.3 0.00 0.00 0.00 67 1013.9
20260905195226 32 85 4.8 11.3 0.00 0.00 0.00 67 1014.0
20260905194720 32 23 4.8 12.9 0.00 0.00 0.00 66 1014.1
20260905194220 32 101 4.8 12.9 0.00 0.00 0.00 67 1014.1
20260905193722 32 74 3.2 12.9 0.00 0.00 0.00 66 1014.1
20260905193219 32 307 3.2 8.0 0.00 0.00 0.00 67 1014.2
20260905192722 32 20 3.2 8.0 0.00 0.00 0.00 67 1014.2
20260905192446 32 334 3.2 8.0 0.00 0.00 0.00 69 1014.1
20260905191957 32 320 3.2 9.7 0.00 0.00 0.00 69 1014.1
20260905191219 32 304 3.2 9.7 0.00 0.00 0.00 69 1014.1
20260905190717 32 98 4.8 9.7 0.00 0.00 0.00 68 1014.1
20260905190215 32 83 4.8 9.7 0.00 0.00 0.00 70 1014.2
20260905185715 32 61 3.2 8.0 0.00 0.00 0.00 68 1014.4
20260905185216 31 57 3.2 8.0 0.00 0.00 0.00 70 1014.5
20260905184713 31 127 3.2 8.0 0.00 0.00 0.00 69 1014.7
20260905184213 31 332 3.2 12.9 0.00 0.00 0.00 69 1014.5
20260905183714 31 46 3.2 12.9 0.00 0.00 0.00 69 1014.5
20260905183214 31 64 3.2 11.3 0.00 0.00 0.00 69 1014.7
20260905182211 31 19 4.8 12.9 0.00 0.00 0.00 68 1014.8
20260905181711 31 339 3.2 9.7 0.00 0.00 0.00 68 1014.7
20260905181209 31 344 4.8 9.7 0.00 0.00 0.00 70 1014.7
20260905180709 31 303 3.2 9.7 0.00 0.00 0.00 69 1014.7
20260905180210 31 63 3.2 9.7 0.00 0.00 0.00 70 1014.5
20260905175939 31 69 3.2 8.0 0.00 0.00 0.00 70 1014.7
20260905175209 31 13 4.8 12.9 0.00 0.00 0.00 70 1014.5
20260905174711 31 43 4.8 12.9 0.00 0.00 0.00 72 1014.5
20260905174210 31 88 6.4 12.9 0.00 0.00 0.00 70 1014.5
20260905173709 31 76 4.8 12.9 0.00 0.00 0.00 71 1014.5
20260905173212 31 72 4.8 12.9 0.00 0.00 0.00 70 1014.5
20260905172713 31 59 4.8 12.9 0.00 0.00 0.00 72 1014.7
20260905172209 31 107 6.4 12.9 0.00 0.00 0.00 70 1014.7
20260905171717 31 326 4.8 12.9 0.00 0.00 0.00 71 1014.8
20260905171212 31 53 4.8 12.9 0.00 0.00 0.00 71 1014.9
20260905170712 31 48 4.8 12.9 0.00 0.00 0.00 73 1014.8
20260905170212 31 114 6.4 12.9 0.00 0.00 0.00 72 1014.8
20260905165929 31 344 4.8 12.9 0.00 0.00 0.00 73 1014.9
20260905165207 31 61 3.2 9.7 0.00 0.00 0.00 72 1014.9
20260905164707 31 57 3.2 8.0 0.00 0.00 0.00 72 1014.9
20260905164205 31 45 3.2 8.0 0.00 0.00 0.00 72 1015.0
20260905163929 31 353 3.2 8.0 0.00 0.00 0.00 73 1015.1
20260905163203 31 67 4.8 9.7 0.00 0.00 0.00 75 1015.0
20260905162703 31 102 4.8 9.7 0.00 0.00 0.00 74 1015.1
20260905162204 30 339 4.8 11.3 0.00 0.00 0.00 74 1015.0
20260905161704 30 40 4.8 12.9 0.00 0.00 0.00 74 1014.9
20260905161204 30 36 4.8 12.9 0.00 0.00 0.00 75 1014.9
20260905160702 30 105 3.2 11.3 0.00 0.00 0.00 76 1014.9
20260905160206 30 21 4.8 12.9 0.00 0.00 0.00 76 1014.9
20260905155703 30 334 4.8 12.9 0.00 0.00 0.00 78 1014.9